[[{"header":{"parameterUnit":"m.s-1","parameterCategory":1,"la1":30.2991,"la2":30.254,"lo1":-89.0895,"lo2":-89.0444,"dy":0.0017,"dx":0.0017,"nx":28,"ny":28,"refTime":"2024-02-21T03:00:00:Z","depth":0,"parameterNumber":2,"parameterNumberName":"U-component_of_WINDS"},"data":[0,0,0,0,0,0,0,0,0,0,0,0,0,0,0,0,0,0,0,0,0,0,0,0,0,0,0,0,0,0,0,0,0,0,0,0,0,0,0,0,0,0,0,0,0,0,0,0,0,0,0,0,0,0,0,0,0,0,-0.0248,-0.0247,0,-0.0221,-0.0221,-0.0221,-0.0229,-0.023,-0.023,-0.0231,-0.0203,-0.0202,-0.0201,0,0,0,0,0,0,0,0,0,0,0,0,0,-0.0305,-0.0304,-0.0248,-0.0247,-0.0247,-0.0221,-0.0221,-0.0221,-0.0229,-0.023,-0.023,-0.0231,-0.0204,-0.0202,-0.0201,0,0,0,0,0,0,0,0,0,0,0,0,0,-0.0279,-0.0303,-0.0248,-0.0248,-0.0248,-0.0221,-0.0221,-0.0221,-0.0229,-0.023,-0.0231,-0.0231,-0.0204,-0.0202,-0.02,-0.0172,0,0,-0.0195,-0.0194,0,0,0,0,0,0,0,0,-0.0281,-0.0277,-0.0248,-0.0248,-0.0248,-0.0229,-0.0231,-0.0204,-0.0229,-0.0236,-0.0231,-0.0232,-0.0211,-0.0209,-0.0202,-0.0171,-0.0169,-0.0194,-0.0193,-0.0193,-0.0192,0,0,0,0,0,0,0,-0.0283,-0.0278,-0.0237,-0.0248,-0.0248,-0.0249,-0.0247,-0.0226,-0.0219,-0.0235,-0.0236,-0.0233,-0.0211,-0.0204,-0.0201,-0.0169,-0.0195,-0.0193,-0.0192,-0.0191,-0.0112,-0.0111,0,0,0,0,0,0,-0.0285,-0.028,-0.0238,-0.0236,-0.0267,-0.0248,-0.0245,-0.0234,-0.0219,-0.0218,-0.0232,-0.0233,-0.0207,-0.0204,-0.02,-0.0166,-0.0193,-0.0191,-0.019,-0.0113,-0.0112,-0.0111,0,0,0,0,0,0,-0.0286,-0.0281,-0.0239,-0.0258,-0.0253,-0.0246,-0.0234,-0.0233,-0.0226,-0.0217,-0.0216,-0.0226,-0.0207,-0.0203,-0.0179,-0.0165,-0.019,-0.0188,-0.0114,-0.0113,-0.0112,-0.0096,0,0,0,0,0,0,-0.0287,-0.0281,-0.027,-0.0258,-0.0252,-0.0218,-0.0233,-0.0232,-0.0223,-0.0224,-0.0211,-0.0209,-0.0207,-0.0182,-0.0177,-0.0163,-0.0187,-0.0116,-0.0114,-0.0112,-0.0098,-0.0094,-0.0091,0,0,0,0,0,-0.0289,-0.0267,-0.027,-0.0265,-0.0238,-0.0217,-0.0214,-0.0213,-0.0222,-0.0211,-0.0205,-0.021,-0.0167,-0.0179,-0.0174,-0.0159,-0.0117,-0.0114,-0.0112,-0.0099,-0.0095,-0.0091,0,0,0,0,0,0,-0.0278,-0.0266,-0.0268,-0.0241,-0.023,-0.0219,-0.0205,-0.0208,-0.0194,-0.0196,-0.0195,-0.0191,-0.0166,-0.016,-0.0174,-0.013,-0.0143,-0.014,-0.0135,-0.0131,-0.0128,-0.013,-0.0185,0,0,0,0,0,-0.0273,-0.0256,-0.0246,-0.0224,-0.0218,-0.0212,-0.0203,-0.0203,-0.0191,-0.0187,-0.0179,-0.0167,-0.0151,-0.0141,-0.0126,-0.0097,-0.0094,-0.0084,-0.0081,-0.0078,-0.0075,-0.0059,-0.0055,-0.0104,-0.0104,-0.0104,0,0,-0.0261,-0.0252,-0.0242,-0.0221,-0.0212,-0.0196,-0.0208,-0.019,-0.0178,-0.0184,-0.016,-0.0154,-0.0141,-0.0115,-0.0103,-0.0109,-0.0061,-0.0076,-0.0074,-0.0072,-0.0057,-0.0052,-0.0048,-0.0103,-0.0103,-0.0103,0,0,-0.0231,-0.0223,-0.0202,-0.0193,-0.018,-0.0177,-0.0172,-0.016,-0.0156,-0.0132,-0.0137,-0.0121,-0.0094,-0.0085,-0.0076,-0.0042,-0.0046,-0.0037,-0.002,-0.0004,-0.0,0.0003,0.0016,0.002,-0.0034,-0.0034,-0.0034,0,-0.0218,-0.0193,-0.0192,-0.0173,-0.0164,-0.0168,-0.0148,-0.0139,-0.0122,-0.0115,-0.0122,-0.0088,-0.0079,-0.005,-0.0042,-0.0035,-0.0029,-0.0038,-0.0001,0.0003,0.0006,0.0018,0.0023,-0.0033,-0.0033,-0.0033,-0.0033,0,-0.0177,-0.016,-0.0145,-0.0128,-0.0117,-0.0097,-0.0093,-0.0082,-0.0083,-0.0078,-0.0054,-0.0044,-0.0027,-0.002,-0.002,0.0009,0.0005,-0.0002,-0.0014,0.0011,0.0023,0.0027,-0.0032,-0.0032,-0.0032,-0.0033,0,0,-0.014,-0.0122,-0.0116,-0.0108,-0.0094,-0.008,-0.0061,-0.0044,-0.0034,-0.0022,-0.0005,0.0018,0.0012,0.0022,0.0022,0.0036,0.0063,0.0028,0.0028,0.0034,0.0097,0.0102,0.0108,0.006,0.0061,0.0062,0.0096,0,-0.0108,-0.0074,-0.0072,-0.0041,-0.0025,-0.0029,-0.0012,-0.0001,0.0004,0.0019,0.0024,0.0041,0.0031,0.0037,0.0051,0.0057,0.0076,0.0054,0.0076,0.0077,0.0074,0.0113,0.0119,0.015,0.01,0.0101,0.0102,0,-0.0067,-0.0053,-0.002,-0.0008,-0.0001,0.0015,0.003,0.0044,0.0057,0.0059,0.007,0.0069,0.0089,0.0076,0.0104,0.0089,0.0099,0.0103,0.0104,0.0107,0.0091,0.0117,0.0161,0.0165,0.0109,0.0108,0.0108,0,-0.0043,-0.0016,0.0008,0.0015,0.003,0.0041,0.0048,0.0059,0.0069,0.0083,0.009,0.0106,0.0115,0.0128,0.0131,0.0121,0.016,0.0146,0.0163,0.0163,0.0171,0.0171,0.0217,0.0176,0.0176,0.0176,0.0176,0,-0.0008,0.0013,0.0019,0.0033,0.0056,0.0058,0.0081,0.0087,0.0097,0.0113,0.011,0.0125,0.0128,0.0144,0.0147,0.017,0.0174,0.0177,0.0178,0.0177,0.0177,0.0184,0.0182,0.0178,0.0177,0.0177,0.0177,0,0.0024,0.0029,0.0054,0.0066,0.007,0.0086,0.0097,0.0111,0.0116,0.0136,0.014,0.0148,0.0166,0.0171,0.0192,0.0194,0.0222,0.022,0.0218,0.0218,0.0234,0.0233,0.0287,0.0294,0.0248,0.0249,0.0249,0,0.0046,0.0061,0.0076,0.0086,0.0094,0.011,0.0121,0.0124,0.0135,0.015,0.0163,0.0181,0.0195,0.0225,0.0232,0.0249,0.0248,0.0265,0.025,0.025,0.0249,0.0248,0.025,0.0268,0.0269,0.0269,0.027,0,0.0085,0.0086,0.0102,0.0118,0.0131,0.0144,0.0156,0.0165,0.017,0.0182,0.0201,0.0212,0.0235,0.0253,0.027,0.0277,0.0275,0.0274,0.0279,0.0279,0.0278,0.0279,0.0226,0.0273,0.0273,0.0273,0.0272,0.0272,0.0112,0.0126,0.0139,0.0156,0.0166,0.0178,0.0192,0.0198,0.0214,0.0232,0.0233,0.0254,0.0266,0.0289,0.0297,0.0313,0.0308,0.0315,0.0317,0.0319,0.032,0.0275,0.0316,0.0316,0.0316,0.0316,0.0316,0,0.0151,0.0159,0.0175,0.0193,0.0207,0.0203,0.0217,0.0229,0.0247,0.0259,0.0273,0.0295,0.0313,0.0322,0.0339,0.0351,0.035,0.0355,0.0355,0.0357,0.0324,0.0318,0.0356,0.0356,0.0356,0.0356,0.0356,0.0356,0.0173,0.0197,0.02,0.0229,0.0237,0.0257,0.0265,0.0276,0.0286,0.0311,0.0325,0.0331,0.0342,0.0361,0.0377,0.0379,0.0386,0.0392,0.0394,0.0363,0.0359,0.0355,0.035,0.0393,0.0393,0.0425,0.0426,0.0426]},{"header":{"parameterUnit":"m.s-1","parameterCategory":1,"la1":30.2991,"la2":30.254,"lo1":-89.0895,"lo2":-89.0444,"dy":0.0017,"dx":0.0017,"nx":28,"ny":28,"refTime":"2024-02-21T03:00:00:Z","depth":0,"parameterNumber":3,"parameterNumberName":"V-component_of_WINDS"},"data":[0,0,0,0,0,0,0,0,0,0,0,0,0,0,0,0,0,0,0,0,0,0,0,0,0,0,0,0,0,0,0,0,0,0,0,0,0,0,0,0,0,0,0,0,0,0,0,0,0,0,0,0,0,0,0,0,0,0,3.0257,3.0258,0,3.0269,3.0269,3.0269,3.0218,3.0216,3.0215,3.0213,3.0224,3.0226,3.0227,0,0,0,0,0,0,0,0,0,0,0,0,0,3.0189,3.0191,3.0257,3.0258,3.0258,3.0269,3.0269,3.0269,3.0218,3.0216,3.0214,3.0213,3.0223,3.0225,3.0227,0,0,0,0,0,0,0,0,0,0,0,0,0,3.0212,3.0191,3.0257,3.0234,3.0232,3.0269,3.0269,3.0269,3.0218,3.0216,3.0214,3.0212,3.0223,3.0225,3.0228,3.0288,0,0,3.0235,3.0236,0,0,0,0,0,0,0,0,3.021,3.0214,3.0237,3.0235,3.0233,3.024,3.0249,3.0276,3.0219,3.0223,3.0213,3.0211,3.0231,3.0233,3.024,3.0289,3.0289,3.0236,3.0237,3.0238,3.0239,0,0,0,0,0,0,0,3.0209,3.0213,3.0262,3.0237,3.0235,3.0222,3.0222,3.0254,3.024,3.0223,3.0219,3.0221,3.0229,3.0237,3.024,3.0289,3.0236,3.0238,3.0239,3.024,3.0388,3.039,0,0,0,0,0,0,3.0211,3.0212,3.0262,3.0262,3.0216,3.0225,3.0225,3.024,3.0239,3.0237,3.0223,3.0219,3.0234,3.0237,3.024,3.0311,3.0238,3.0241,3.0242,3.0386,3.0389,3.0391,0,0,0,0,0,0,3.021,3.0216,3.0261,3.0236,3.0241,3.0228,3.0245,3.0241,3.0249,3.0239,3.0236,3.0234,3.0233,3.0236,3.0276,3.031,3.0242,3.0244,3.0383,3.0387,3.039,3.0453,0,0,0,0,0,0,3.0208,3.0216,3.0239,3.0237,3.0243,3.0298,3.0247,3.0243,3.0254,3.0248,3.0249,3.0247,3.0231,3.0273,3.0279,3.0312,3.0246,3.038,3.0384,3.0389,3.0448,3.0458,3.0467,0,0,0,0,0,3.0206,3.0256,3.024,3.0247,3.0272,3.03,3.0303,3.0285,3.0257,3.028,3.0273,3.0247,3.0305,3.0278,3.0284,3.0319,3.0378,3.0383,3.0388,3.0443,3.0456,3.0467,0,0,0,0,0,0,3.0262,3.0255,3.0238,3.0289,3.0296,3.0292,3.032,3.0299,3.0313,3.0307,3.0283,3.0284,3.0328,3.0327,3.0296,3.0377,3.0336,3.0343,3.0376,3.0388,3.0398,3.0397,3.0248,0,0,0,0,0,3.028,3.0304,3.0297,3.0343,3.0348,3.0334,3.0345,3.033,3.0336,3.0338,3.0335,3.0341,3.036,3.0374,3.0392,3.0447,3.0446,3.0474,3.0483,3.0491,3.0498,3.0527,3.0539,3.0409,3.0409,3.0409,0,0,3.0318,3.0318,3.0335,3.0355,3.0358,3.0383,3.0336,3.0365,3.0384,3.0342,3.0381,3.0378,3.0383,3.0431,3.0452,3.0432,3.0534,3.0498,3.0505,3.0507,3.0534,3.0546,3.0557,3.0413,3.0412,3.0411,0,0,3.0401,3.0403,3.0442,3.0446,3.0451,3.0442,3.0451,3.045,3.0447,3.0485,3.0455,3.0476,3.051,3.0515,3.0522,3.0606,3.0582,3.0612,3.0663,3.0692,3.0702,3.0711,3.0741,3.0752,3.0619,3.0619,3.0619,0,3.0448,3.0485,3.0464,3.0495,3.0505,3.0469,3.0507,3.0512,3.0523,3.053,3.0507,3.055,3.0551,3.0599,3.062,3.0627,3.0636,3.0612,3.0702,3.0711,3.0719,3.0748,3.0759,3.0622,3.0622,3.0622,3.0621,0,3.0543,3.0569,3.0599,3.0611,3.0624,3.0659,3.0642,3.0658,3.0641,3.0634,3.0673,3.0672,3.0689,3.0699,3.0683,3.0746,3.0733,3.0707,3.0666,3.0736,3.0762,3.0773,3.0628,3.0626,3.0625,3.0624,0,0,3.0662,3.0661,3.0673,3.0678,3.0681,3.0701,3.0733,3.075,3.0764,3.0772,3.0799,3.0829,3.0804,3.0812,3.0796,3.0821,3.0888,3.0792,3.0791,3.081,3.0957,3.0977,3.099,3.0872,3.0874,3.0875,3.0957,0,3.0744,3.08,3.0782,3.0839,3.0863,3.0828,3.0857,3.0861,3.0855,3.0874,3.0866,3.0888,3.0854,3.0859,3.0882,3.0875,3.0917,3.0869,3.0896,3.0898,3.0897,3.1004,3.1026,3.1103,3.0967,3.0968,3.097,0,3.0847,3.086,3.0919,3.0918,3.0927,3.0953,3.0967,3.0985,3.099,3.0983,3.0992,3.0971,3.1002,3.0961,3.1004,3.0971,3.0981,3.0979,3.0982,3.0984,3.0939,3.101,3.1127,3.1139,3.0986,3.0984,3.0983,0,3.0929,3.0961,3.1,3.1005,3.1005,3.1024,3.1024,3.1026,3.1037,3.1049,3.1056,3.1071,3.108,3.1091,3.1075,3.1046,3.112,3.1077,3.1116,3.1116,3.1134,3.1133,3.1254,3.1139,3.1139,3.1139,3.1138,0,3.1022,3.106,3.1037,3.1062,3.1103,3.1081,3.1122,3.1119,3.1121,3.1144,3.1114,3.1136,3.1112,3.1132,3.1119,3.1156,3.116,3.1156,3.1152,3.1159,3.116,3.1166,3.116,3.1142,3.1141,3.114,3.114,0,3.1121,3.1107,3.1149,3.1144,3.1144,3.1175,3.1171,3.1193,3.1184,3.1213,3.1219,3.1205,3.1227,3.1211,3.1232,3.1223,3.1273,3.1261,3.1272,3.1269,3.1309,3.1305,3.1439,3.1455,3.1329,3.133,3.1331,0,3.1182,3.1211,3.121,3.1223,3.1225,3.1247,3.1258,3.1237,3.125,3.1256,3.1278,3.1297,3.1311,3.1347,3.1339,3.1355,3.1344,3.1389,3.1346,3.1352,3.1345,3.1344,3.1347,3.1399,3.14,3.1401,3.1402,0,3.1293,3.1284,3.1302,3.1317,3.1331,3.1342,3.135,3.1362,3.1341,3.1356,3.1378,3.1389,3.1411,3.143,3.1443,3.1443,3.1419,3.1416,3.1426,3.1434,3.1439,3.1437,3.1297,3.1413,3.1412,3.1411,3.1411,3.141,3.1375,3.1399,3.1401,3.1422,3.1425,3.1434,3.1454,3.1448,3.1466,3.1482,3.1468,3.1494,3.1497,3.1512,3.1515,3.1535,3.1516,3.153,3.1534,3.1538,3.1544,3.1435,3.1537,3.1536,3.1536,3.1536,3.1536,0,3.1484,3.1484,3.1503,3.1515,3.1531,3.1507,3.1515,3.1529,3.1553,3.1558,3.1572,3.1597,3.1615,3.1608,3.1624,3.1642,3.1631,3.1647,3.1646,3.1646,3.1559,3.155,3.1655,3.1655,3.1655,3.1655,3.1655,3.1655,3.1543,3.1582,3.1573,3.1613,3.1613,3.1638,3.1645,3.1652,3.1656,3.1685,3.17,3.1695,3.1695,3.1711,3.1726,3.1724,3.1731,3.1751,3.1745,3.1664,3.1652,3.1641,3.1632,3.1753,3.1753,3.183,3.183,3.1831]}]]